Theta_e
322 323 322 322 322 321 321 321 321 321 321 321 321 322 322 322 323 323 324 324 325 325 324 323 322 321 320 318 317 315 313 312 311 309 309 310 310 310 310 308 308 310 309 307 307 307 307 307 307 307 306 304 305 306 304 304 304 302 302 303 302 302 301 301 301 301 300 299 300 300 300 300 300 300 299 300 299 299 298 298 297 297 297 297 296
322 322 322 321 321 322 322 322 321 321 321 321 321 322 322 322 323 324 325 325 325 325 325 324 323 322 321 320 318 317 315 313 311 310 309 310 310 309 310 308 308 309 309 308 307 306 306 307 307 307 306 303 303 305 304 304 304 303 303 303 302 302 301 300 300 300 300 300 300 300 301 301 300 300 300 300 299 298 298 297 296 296 296 296 296
323 322 322 322 322 322 322 322 322 322 322 322 321 321 322 322 323 324 325 325 325 325 325 324 323 323 322 320 319 318 316 315 313 311 310 310 310 309 309 309 307 307 309 309 308 307 306 306 306 306 306 305 303 303 303 303 303 302 302 303 302 302 301 301 300 299 300 300 300 301 301 301 301 301 300 299 298 298 297 297 297 296 296 296 295
324 323 322 322 322 322 323 323 322 322 322 322 322 322 322 323 323 324 324 325 325 325 325 325 324 323 322 321 320 319 317 316 314 313 311 311 311 310 309 308 307 307 308 308 308 307 307 307 305 305 306 306 305 303 303 303 304 303 303 303 303 303 302 301 300 300 300 300 300 301 301 301 301 301 300 299 298 298 298 298 297 297 296 295 294
325 324 324 323 323 323 323 323 323 322 322 322 322 322 323 323 324 324 324 325 325 325 326 325 324 324 323 323 321 320 318 317 316 314 313 312 311 311 309 309 308 307 307 308 307 307 307 307 306 306 306 306 306 305 305 305 305 305 305 304 304 304 303 302 301 300 300 301 301 301 301 302 302 301 300 299 298 298 298 298 298 297 296 295 295
325 325 324 324 324 324 324 324 324 323 323 323 323 323 323 323 324 325 324 325 325 325 326 325 325 325 324 324 322 321 320 319 317 316 315 313 312 311 310 309 308 307 307 307 307 307 307 307 307 307 307 307 307 306 306 306 305 305 306 305 304 304 304 303 302 302 301 301 301 301 301 302 301 300 299 299 298 298 299 298 298 297 297 296 295
326 325 325 324 324 324 324 324 324 324 324 323 323 323 323 324 325 325 325 325 325 325 325 326 325 325 325 324 323 322 321 320 319 317 316 315 313 312 311 310 309 308 308 307 307 307 306 306 306 306 306 307 307 307 306 306 305 305 305 305 305 305 305 305 304 303 302 302 302 301 301 301 301 300 299 298 298 299 298 298 298 297 297 296 295
326 325 325 325 325 325 325 325 325 325 324 324 323 323 324 324 325 325 325 325 325 325 325 325 325 325 325 325 324 323 322 321 320 318 317 316 315 313 312 311 310 309 309 308 307 307 307 306 306 305 306 306 306 306 306 306 305 305 305 306 306 306 306 306 305 304 303 302 301 301 301 301 300 299 298 297 298 299 298 298 298 297 296 296 295
326 326 326 326 326 326 326 326 326 325 325 324 323 323 324 324 325 325 325 325 324 325 325 325 326 326 326 325 324 324 323 322 321 319 318 317 316 315 313 312 311 310 309 308 308 307 306 306 306 306 306 306 306 306 306 305 305 305 306 306 306 306 306 306 305 304 303 302 301 301 300 300 299 298 297 297 298 298 298 298 297 296 296 295 295
326 326 326 326 326 326 326 326 326 326 325 324 324 324 324 325 325 325 325 325 325 325 325 325 325 326 326 326 325 325 324 323 322 321 320 319 317 316 314 313 312 311 310 309 308 308 307 306 306 306 305 306 305 305 305 305 304 304 304 304 303 303 304 305 305 303 302 301 301 300 299 299 298 297 297 296 297 298 298 298 296 296 295 295 294
326 326 326 326 326 326 326 326 326 325 325 325 325 325 325 326 326 326 325 325 325 325 326 326 325 326 326 326 326 325 325 324 323 322 320 319 318 317 316 315 313 312 311 310 309 309 308 307 306 306 305 305 305 305 304 304 303 302 301 300 299 297 298 300 301 301 300 301 300 299 298 298 297 296 296 295 296 298 298 297 296 295 295 294 294
327 326 326 326 326 326 326 326 326 325 325 325 325 325 326 326 326 326 326 326 326 326 326 327 327 327 327 326 326 326 325 325 324 323 322 320 319 318 316 315 315 314 312 311 310 309 309 308 307 306 306 305 305 304 304 303 302 302 301 299 298 295 294 295 296 296 297 298 299 298 297 297 296 295 295 295 297 298 297 296 295 295 294 294 294
327 326 326 326 326 326 326 326 325 325 325 325 325 325 326 326 326 326 326 326 327 327 327 328 328 328 328 328 327 326 326 326 325 324 323 322 320 319 317 316 316 315 313 312 311 310 309 308 308 307 307 306 306 305 304 304 303 303 303 302 301 300 299 298 297 297 296 296 297 297 296 295 295 294 293 294 297 298 297 295 295 294 294 293 293
327 327 326 326 326 326 326 326 326 325 325 325 325 325 326 326 326 327 327 327 327 328 328 329 330 330 331 330 329 328 327 327 326 325 324 323 321 319 318 317 316 316 315 313 312 311 310 308 307 307 307 307 307 306 305 305 304 304 304 304 303 302 302 302 301 301 299 298 297 296 295 294 294 293 293 295 297 297 296 294 293 293 294 293 293
327 327 327 326 326 326 326 326 326 325 325 325 325 325 326 326 326 327 327 327 328 328 329 331 331 331 332 332 331 329 328 327 327 326 325 324 322 320 318 317 316 316 316 314 313 312 311 309 308 307 306 306 306 306 306 305 305 305 305 304 304 304 303 304 304 304 303 301 300 298 297 296 295 294 295 296 297 296 294 292 291 293 294 294 294
328 328 327 327 327 326 326 326 326 326 325 325 326 326 326 326 327 328 328 327 328 328 329 331 332 332 333 333 332 331 329 328 327 326 326 325 323 321 319 317 316 315 316 315 314 313 312 310 309 307 306 306 305 306 306 306 306 305 305 305 305 305 306 306 306 306 305 304 303 302 301 299 297 295 295 295 295 293 291 290 291 293 294 294 294
329 328 328 328 327 326 326 326 326 326 326 326 326 326 326 326 327 327 328 328 328 328 329 331 332 332 333 334 333 332 331 330 328 327 326 325 323 321 319 317 315 314 314 314 314 313 312 311 310 308 307 306 306 305 305 305 305 305 306 306 305 305 305 305 304 303 303 303 303 303 301 300 298 296 295 294 291 289 289 291 293 294 294 294 295
329 329 328 328 328 327 326 325 326 326 326 326 326 326 326 326 327 327 327 328 328 329 329 330 332 333 333 334 333 332 331 331 329 328 326 325 323 322 320 317 314 313 313 313 313 313 313 312 311 309 308 307 306 305 305 304 304 304 304 304 304 303 303 302 301 301 301 302 302 301 300 299 298 297 296 293 290 288 290 293 294 295 295 295 296
330 329 329 329 328 328 327 325 325 325 326 326 326 326 326 327 327 328 327 328 329 329 330 330 331 332 332 333 333 333 332 331 330 328 327 325 323 322 320 317 314 313 313 313 312 312 312 312 311 310 308 308 306 306 305 304 303 303 302 302 302 302 302 301 301 301 301 302 301 300 299 298 298 298 296 293 290 288 291 294 295 296 296 296 296
329 329 329 329 328 328 328 327 326 326 326 326 326 326 327 328 328 328 328 328 329 329 330 330 331 332 332 332 332 332 332 331 330 328 327 325 324 323 320 317 315 314 313 313 312 312 312 312 312 310 309 309 307 306 305 304 303 302 302 301 301 302 301 301 301 301 301 302 301 300 300 299 298 298 296 294 292 290 291 295 296 296 296 296 295
330 330 330 329 329 329 328 328 328 327 326 326 326 327 327 327 328 328 328 328 329 329 329 329 331 332 332 331 331 331 332 331 329 328 326 325 325 323 320 318 316 315 314 313 312 312 313 313 312 311 310 309 308 307 305 304 302 301 300 300 300 301 301 301 301 301 301 301 301 300 300 299 298 297 296 296 295 292 292 295 296 296 295 295 294
329 329 329 329 329 329 329 328 328 328 327 326 326 327 327 327 328 328 328 329 328 329 330 331 332 332 331 330 330 331 331 330 328 327 326 325 325 323 320 318 316 315 315 314 313 313 313 313 313 312 311 310 309 308 306 305 303 301 299 298 298 299 300 299 298 298 298 299 299 299 299 298 297 295 295 297 296 294 292 294 296 295 295 294 294
329 330 330 330 329 329 328 328 328 329 329 327 327 327 328 327 328 328 329 329 329 330 332 334 333 331 330 329 330 330 330 329 328 327 326 325 324 322 321 319 317 315 315 315 314 313 313 314 313 313 311 310 309 308 306 305 303 301 300 298 297 297 296 295 294 294 295 296 297 297 296 296 295 294 294 296 297 295 293 293 294 295 294 294 294
330 330 330 329 329 328 329 329 329 329 329 329 328 328 329 329 330 330 330 330 331 332 334 334 333 332 331 330 330 330 329 328 328 327 326 325 323 321 320 319 317 315 315 315 315 314 314 314 314 313 312 311 309 307 305 304 302 301 300 298 296 295 293 292 292 292 293 294 294 294 294 293 292 292 293 295 296 296 293 292 293 294 294 294 294
330 330 329 328 328 328 328 328 329 329 331 331 332 332 332 332 331 331 331 331 332 333 334 333 331 331 331 331 330 330 329 328 328 327 326 324 322 320 319 317 316 315 314 314 314 314 314 314 313 312 311 310 308 305 304 303 301 300 299 298 297 295 295 295 294 292 292 293 293 293 293 292 292 292 294 295 297 297 294 293 293 294 294 294 295
331 331 331 331 331 330 329 329 329 330 331 331 331 330 330 329 329 329 329 329 329 331 331 330 328 328 329 330 330 329 328 327 327 326 324 322 321 320 319 317 315 314 313 313 313 313 312 312 311 310 309 308 306 304 303 302 301 300 299 298 298 298 298 298 297 295 294 294 294 294 294 294 293 293 294 296 298 297 295 293 294 294 294 294 295
331 331 331 331 330 329 329 329 328 328 328 329 329 328 329 328 327 327 328 327 327 327 327 326 326 326 327 328 327 326 325 326 325 324 323 322 321 321 319 317 315 314 313 312 312 312 311 310 309 308 307 306 305 303 302 301 301 300 299 299 299 300 299 299 298 297 297 296 296 295 295 295 294 294 296 297 298 297 295 294 294 294 294 294 295
332 330 330 331 331 330 328 328 328 327 328 329 328 327 328 328 327 326 326 326 326 327 326 325 325 325 326 326 326 325 324 323 322 322 321 321 320 319 318 316 315 314 313 313 313 312 311 309 308 307 307 305 304 303 302 301 301 300 300 300 300 300 300 299 298 298 297 297 296 296 296 296 295 296 297 298 297 297 296 295 294 294 294 294 295
332 330 330 330 330 329 328 327 327 328 328 328 326 324 325 326 325 324 322 321 322 323 323 322 322 322 322 322 324 324 321 318 318 320 320 319 318 316 315 314 313 313 313 313 312 310 309 308 307 307 306 305 304 303 302 302 301 301 301 301 301 300 299 299 298 298 298 297 297 297 296 296 296 297 298 298 298 297 296 295 294 294 294 295 294
331 330 329 328 328 327 328 328 328 328 328 326 325 323 323 323 323 322 321 320 321 321 321 320 320 320 320 319 320 320 318 316 316 317 318 317 316 315 314 312 312 311 311 310 310 308 307 307 307 306 306 305 305 304 304 303 303 303 303 303 302 301 300 300 299 299 299 298 297 297 296 296 297 298 299 299 298 297 296 295 294 294 294 295 294
329 329 328 327 327 327 327 327 327 327 326 325 325 325 324 322 320 320 321 321 321 321 320 320 320 320 319 318 318 318 318 317 317 317 317 316 315 315 313 312 311 311 310 310 309 308 307 307 308 308 307 307 306 306 306 305 305 304 304 304 303 302 301 301 301 300 300 299 298 297 297 298 298 299 300 300 298 297 296 295 294 294 294 294 294
325 326 326 326 326 326 326 325 325 325 324 324 324 324 324 323 321 320 320 320 320 319 319 318 319 319 318 318 318 318 318 318 318 318 317 316 316 315 314 313 312 311 310 310 309 308 307 308 309 309 309 309 309 308 308 307 306 306 306 305 305 304 303 303 302 302 300 299 299 299 299 299 300 300 301 300 298 297 296 295 294 294 295 294 294
319 320 321 321 322 322 323 322 322 321 321 320 320 319 320 320 320 320 320 319 319 318 318 318 318 318 317 317 317 317 317 317 316 316 316 315 315 314 313 313 312 311 310 309 308 308 307 308 308 308 309 309 309 309 309 308 308 308 307 307 306 305 304 304 303 302 301 300 300 300 300 301 301 301 300 299 298 296 295 295 294 294 294 294 294
313 313 314 315 316 318 318 317 317 317 317 316 316 315 316 316 316 317 317 317 318 317 317 319 318 316 315 315 315 314 314 315 315 315 315 315 314 313 313 312 311 311 310 308 307 307 307 307 308 308 308 308 308 309 309 308 308 308 308 308 307 306 306 306 305 305 304 303 302 301 301 302 302 301 300 299 297 296 295 295 294 294 294 294 294
313 312 311 311 312 312 312 312 312 312 313 313 313 313 313 313 314 315 316 316 316 316 318 319 318 316 314 313 312 311 310 310 312 313 313 313 312 312 312 311 310 310 310 309 308 308 308 308 308 308 309 309 309 309 309 309 309 310 310 309 309 308 308 308 308 307 307 306 305 303 303 303 302 301 300 299 298 297 296 295 294 294 294 294 294
312 311 310 311 313 312 312 312 311 311 312 313 313 313 313 314 314 315 317 315 313 314 317 317 316 316 315 313 311 310 308 307 308 311 312 312 311 310 310 310 310 311 311 311 311 310 310 309 309 309 310 310 310 310 310 310 311 311 311 310 310 310 310 310 310 309 308 307 306 305 304 304 303 301 300 299 298 297 296 295 295 295 294 294 294
307 307 306 309 313 315 314 313 312 313 314 315 314 313 314 314 314 315 315 313 310 310 312 312 313 315 315 310 307 306 303 302 306 309 310 311 311 311 310 310 311 312 313 313 312 312 311 311 311 311 311 311 311 311 311 311 311 311 311 311 311 311 311 310 310 309 309 308 307 306 305 304 303 302 300 300 299 297 296 295 295 295 295 294 293
304 303 303 304 307 310 309 307 307 308 309 308 307 306 307 307 308 308 308 307 305 305 306 306 308 310 307 303 302 302 300 300 304 308 310 312 312 311 311 311 311 312 313 312 312 312 311 312 312 312 311 311 311 311 311 311 311 311 311 310 310 310 310 310 309 309 309 308 307 306 305 304 303 302 301 301 299 297 296 295 295 295 295 294 293
303 303 303 303 304 304 304 303 303 303 303 304 304 304 303 303 304 304 304 304 304 304 304 305 306 306 305 303 302 302 300 299 303 308 311 312 312 312 312 312 312 311 311 310 310 310 309 309 309 309 308 307 307 307 307 307 307 308 308 308 308 308 308 308 308 308 308 307 307 306 305 304 303 302 301 301 299 297 296 295 295 294 294 294 292
304 303 303 304 304 304 303 303 303 303 303 303 303 303 304 304 304 304 304 304 304 304 304 304 305 306 306 305 304 303 301 301 304 307 308 308 309 309 309 308 307 307 307 307 306 306 306 306 305 304 303 303 303 303 304 304 304 305 305 305 306 306 307 307 307 307 306 306 305 305 304 303 303 302 301 300 299 297 296 295 295 294 294 293 292
304 304 303 304 304 304 304 304 303 303 303 303 303 304 304 304 305 305 304 304 304 304 304 304 304 305 306 305 304 303 302 303 304 305 305 303 304 304 303 303 303 304 304 304 303 303 303 303 302 302 302 302 302 302 302 303 304 304 304 304 304 304 305 305 305 305 305 304 304 304 304 303 302 301 300 299 298 296 295 295 295 294 294 293 292
304 304 304 304 303 303 304 304 303 303 303 304 304 304 304 304 304 305 304 304 304 303 303 303 303 304 306 305 304 303 303 304 304 304 304 303 303 302 302 302 303 303 302 302 301 302 302 302 301 301 301 301 301 301 301 302 302 302 303 303 303 303 304 304 304 304 304 304 303 303 303 302 302 301 300 298 297 296 295 294 294 294 293 292 292
304 304 303 304 303 303 303 303 303 303 303 303 302 303 304 304 304 304 304 303 303 303 303 303 303 303 304 305 304 304 304 304 304 304 304 304 303 302 302 302 302 302 302 301 301 302 302 301 301 301 301 301 301 301 300 300 300 301 301 302 302 303 303 302 302 303 303 303 303 303 302 302 301 300 299 298 297 296 295 294 294 293 293 292 291
303 304 303 303 303 303 303 303 303 303 303 302 302 302 304 304 303 303 303 302 302 302 302 302 302 302 303 304 304 304 305 305 305 305 304 304 304 303 303 302 302 302 302 301 301 301 301 301 301 301 301 301 301 301 300 300 300 300 301 300 300 301 301 300 298 298 297 298 300 302 302 302 301 300 298 298 297 296 295 294 293 293 292 292 291
303 303 304 304 303 303 303 303 302 302 302 302 301 302 304 303 302 302 302 302 302 302 301 301 301 302 302 303 304 304 304 304 304 304 304 304 304 304 303 303 303 302 302 302 302 301 301 301 301 301 301 301 301 301 301 300 300 300 300 299 299 300 299 297 295 294 294 295 299 301 301 302 301 300 299 298 297 296 295 294 293 293 292 291 291
303 303 304 304 304 303 303 303 302 302 302 302 302 302 302 302 302 302 302 302 301 301 301 301 301 302 301 302 302 302 303 303 303 303 304 304 304 304 303 303 303 302 302 302 302 302 301 301 301 301 301 301 300 300 300 300 300 300 299 299 299 299 298 296 295 294 293 294 297 299 300 301 301 301 300 299 298 296 295 294 293 293 292 291 291
303 303 304 304 304 304 303 303 303 303 302 302 302 302 302 302 301 301 301 301 301 301 301 301 301 301 301 301 302 301 301 302 302 302 302 302 303 303 303 303 303 302 302 302 302 302 301 301 301 300 301 300 300 300 300 300 300 300 299 299 298 298 297 296 295 295 294 293 294 296 299 300 300 300 300 300 298 296 295 294 293 292 292 291 291
303 303 303 303 303 303 303 303 303 303 302 302 302 302 301 301 301 301 301 301 301 301 301 301 300 301 301 301 301 300 301 301 301 301 301 302 302 302 302 302 302 302 302 301 301 301 301 301 301 300 300 300 300 300 300 300 300 300 299 299 298 298 298 297 296 295 295 294 293 295 298 299 299 299 300 299 298 296 295 294 293 292 292 291 290
302 303 303 303 303 303 303 303 303 303 302 302 302 302 301 301 301 301 300 300 300 300 300 300 300 300 300 300 300 300 300 300 300 301 301 301 301 301 301 301 301 301 300 301 301 301 301 301 301 301 301 300 300 300 300 300 300 300 299 299 299 298 298 298 296 296 296 295 294 294 296 298 299 298 298 298 297 296 294 294 293 292 291 291 290
301 302 302 303 302 303 303 302 302 302 302 301 301 301 301 300 300 300 300 300 300 300 299 299 299 299 299 300 300 299 299 299 299 299 299 300 300 300 300 300 300 299 299 300 300 301 301 301 301 301 301 301 300 300 300 300 300 300 300 299 299 299 298 298 297 297 297 296 294 293 295 297 298 298 298 297 297 295 294 293 292 291 291 291 290
300 301 301 301 301 301 301 301 301 301 301 301 301 300 300 300 300 300 300 300 299 299 299 299 299 299 299 299 299 299 299 299 299 299 299 299 299 299 299 299 299 299 299 299 300 300 300 300 300 300 301 300 300 300 300 300 300 300 300 299 299 299 298 298 298 297 297 296 295 294 294 296 297 297 297 296 296 295 294 293 292 291 291 291 290
Wind_Speed
28 28 29 28 24 23 23 23 22 21 20 20 20 19 18 17 17 16 15 13 13 14 13 14 14 13 13 13 12 12 12 12 12 12 11 11 11 10 10 10 10 10 10 9 9 9 9 9 9 9 8 7 8 9 8 8 10 10 7 8 11 10 10 11 9 10 14 15 14 15 15 14 14 14 15 16 16 17 17 17 18 19 20 20 20
27 27 27 26 25 24 25 24 24 22 21 21 21 20 19 18 17 16 15 15 15 15 15 15 15 15 14 14 14 13 13 13 13 13 13 12 12 12 11 12 12 11 11 12 11 11 11 11 10 10 11 9 8 10 10 8 9 11 10 10 11 10 8 10 10 9 12 15 15 15 14 13 14 15 15 15 16 18 18 18 19 19 19 19 21
26 26 26 25 25 26 25 26 26 24 22 22 21 21 20 19 17 14 14 15 16 16 16 15 16 16 15 15 15 15 14 15 14 14 14 14 14 14 13 13 14 14 13 13 13 12 12 12 12 11 12 11 10 11 12 9 8 9 10 9 9 9 8 9 10 10 12 15 14 15 15 14 15 15 14 14 16 18 19 19 19 18 18 20 23
25 26 27 26 25 26 26 26 26 25 24 23 22 22 21 20 17 15 14 15 16 16 16 16 16 17 17 16 16 16 16 16 16 16 16 16 15 15 15 15 15 15 15 15 14 14 15 15 13 12 13 13 12 12 12 11 10 10 10 10 9 9 10 9 10 10 13 15 15 15 15 16 16 14 14 15 16 17 19 20 19 18 18 21 25
25 26 27 27 26 26 26 26 26 27 26 24 23 23 22 20 18 17 16 16 17 17 17 17 17 18 18 18 17 18 18 18 18 18 17 16 17 16 16 16 16 16 17 16 15 15 16 16 15 14 14 15 14 13 13 12 12 12 12 11 10 10 10 9 10 11 13 15 16 16 16 17 16 14 14 15 17 18 19 19 18 19 20 22 26
26 26 27 28 27 27 27 26 26 27 26 25 24 24 23 21 19 18 17 17 18 18 18 18 18 18 19 18 18 18 18 18 18 18 18 17 18 18 18 18 18 18 18 18 17 16 16 16 16 15 16 17 16 15 14 13 13 13 12 12 11 11 11 11 11 12 14 16 16 17 17 16 14 15 15 15 18 20 19 18 19 20 22 23 26
27 27 27 28 28 28 28 27 27 27 26 26 25 24 24 22 21 19 18 18 19 19 19 19 18 18 18 19 18 18 19 19 19 19 19 18 19 19 19 20 19 19 18 18 17 17 17 17 16 16 17 17 17 16 15 14 14 13 13 12 12 12 13 12 12 12 14 15 15 16 16 15 14 14 15 15 17 18 18 19 20 22 24 25 26
27 27 27 27 28 28 28 28 27 27 26 26 25 25 24 23 22 21 20 19 20 20 19 19 19 19 18 19 19 19 19 19 20 21 20 19 20 21 21 21 20 19 19 18 18 18 18 18 18 18 18 18 18 17 16 15 15 14 14 13 13 13 13 13 12 13 14 14 15 15 15 15 14 14 15 16 16 16 17 18 20 22 25 26 26
27 27 27 27 27 28 28 27 27 26 26 26 26 26 25 23 22 21 21 21 20 20 20 19 19 20 20 19 19 19 20 21 21 22 22 21 21 22 22 21 21 20 19 19 18 18 18 18 18 18 18 18 18 17 17 17 16 15 13 12 12 12 12 12 12 13 14 13 13 14 14 15 14 13 14 15 15 17 18 19 20 21 24 26 27
27 27 26 26 26 27 26 26 26 26 26 26 26 26 25 24 23 22 22 22 22 21 21 20 20 21 21 20 20 19 21 23 23 23 24 23 23 22 22 21 21 21 20 19 19 19 19 19 18 18 18 18 18 19 19 20 19 18 16 15 14 13 12 11 11 12 13 13 13 12 13 15 13 12 13 14 16 18 19 19 21 22 22 22 25
27 26 26 26 26 25 26 26 26 26 27 27 27 26 26 25 24 24 23 23 23 23 23 22 21 21 21 21 22 22 22 24 25 25 26 25 24 24 23 23 22 21 21 21 20 20 19 19 18 18 18 19 20 21 22 23 22 22 21 21 21 20 18 17 15 14 13 14 14 13 13 15 15 13 13 15 16 17 18 20 21 21 20 18 19
27 26 25 25 25 25 25 25 26 26 27 27 27 26 26 25 25 25 24 24 24 24 24 24 23 23 23 22 23 24 24 25 25 27 28 28 27 26 25 24 23 23 22 22 21 19 19 19 19 19 18 19 21 22 24 24 23 23 22 22 22 22 21 21 21 19 17 15 15 15 16 17 17 15 14 14 15 17 19 19 19 20 21 19 18
26 26 25 25 25 26 25 25 26 27 27 27 27 27 26 26 25 25 25 25 24 24 25 25 24 24 24 24 24 24 25 26 27 28 29 29 29 28 28 26 24 23 23 22 21 20 19 18 18 19 18 17 19 21 22 22 21 20 19 19 19 20 20 21 22 23 22 20 19 21 21 20 18 17 16 14 16 18 17 18 20 21 22 22 23
25 25 25 25 26 26 26 26 26 27 27 27 27 27 27 27 26 26 25 25 25 25 25 25 25 25 24 24 24 25 26 26 28 30 31 30 29 29 30 28 25 24 23 23 22 21 21 20 19 19 18 17 17 19 20 19 18 18 18 19 20 20 21 22 22 23 24 23 24 25 25 22 20 21 19 16 16 17 17 20 22 22 23 26 28
24 24 25 25 26 26 27 27 27 27 27 28 28 27 27 27 27 27 26 25 25 25 25 25 25 25 25 25 25 25 26 26 28 30 31 31 30 29 30 30 27 25 23 23 22 22 21 21 20 20 19 18 18 18 19 19 18 18 18 19 20 21 22 22 22 22 23 23 23 24 24 22 21 21 20 18 18 20 22 24 25 24 25 26 26
22 23 24 24 25 26 26 27 27 27 27 27 28 28 28 28 28 27 27 27 26 25 25 24 25 25 25 25 25 26 26 27 28 30 31 31 30 29 30 31 30 27 25 23 23 22 22 21 21 21 20 19 19 18 19 20 19 19 19 19 19 19 19 19 18 19 20 20 21 22 21 21 20 19 20 20 22 24 24 25 26 24 22 20 21
22 22 23 24 25 25 26 26 27 27 28 28 28 28 28 28 28 27 27 27 27 26 25 24 24 24 24 25 26 27 27 28 29 31 30 30 30 29 30 31 31 29 27 25 23 23 22 22 22 21 21 21 21 20 20 20 21 21 20 19 19 19 19 19 18 20 22 22 22 21 20 20 19 19 20 22 22 22 21 22 23 21 17 15 15
23 22 21 22 23 23 25 26 27 27 27 28 28 28 28 29 29 28 27 26 25 26 25 24 23 23 24 26 27 28 28 28 30 31 29 28 29 30 30 30 30 29 27 25 25 24 23 23 22 22 22 22 21 21 21 22 23 23 23 21 21 22 22 21 20 20 21 20 19 19 20 20 21 21 22 23 22 19 19 21 21 18 16 14 15
23 23 22 22 23 24 26 26 27 27 27 28 28 27 27 28 28 28 28 27 26 25 24 23 24 25 26 26 26 27 29 29 30 31 29 27 28 29 30 29 28 27 25 24 24 24 24 23 23 24 25 24 23 22 21 22 24 25 24 22 22 23 23 20 18 18 19 19 19 21 21 22 23 23 23 24 23 18 18 20 19 18 17 17 18
21 22 22 22 23 25 26 26 26 27 27 27 28 27 27 27 27 28 27 26 26 25 24 23 23 25 27 27 25 27 29 30 30 29 27 26 27 28 29 29 27 25 24 22 22 23 24 24 24 24 25 26 25 25 24 23 24 25 24 23 23 23 21 17 16 16 16 17 18 20 21 22 22 22 22 24 23 19 17 17 18 18 18 18 20
23 23 21 21 23 24 26 26 26 26 27 27 27 28 28 26 25 25 27 26 25 24 23 23 23 23 24 24 24 26 28 29 28 27 26 25 25 27 30 30 26 22 21 21 21 21 21 22 23 24 24 24 25 26 26 25 25 25 26 26 25 22 18 15 15 15 15 16 17 19 21 22 22 21 21 22 21 18 16 16 17 18 18 20 21
26 24 23 25 26 26 26 26 27 27 26 26 25 25 27 27 26 25 24 24 24 23 22 22 22 21 21 21 21 23 24 24 25 26 26 24 23 25 28 29 25 21 19 20 20 20 20 20 21 22 23 23 23 24 25 25 24 25 26 26 25 23 20 19 19 19 19 19 20 22 23 22 21 21 20 21 22 20 17 16 17 18 19 21 22
21 21 24 27 28 28 27 28 28 26 25 27 26 23 23 24 24 25 24 23 22 20 20 20 20 20 21 21 20 20 20 20 22 24 23 20 19 21 24 27 26 23 21 19 18 18 19 19 20 21 21 21 21 23 24 23 24 24 23 22 22 22 23 23 24 24 23 22 21 23 24 23 22 22 21 22 23 23 20 17 17 18 19 21 23
22 24 25 25 26 24 21 21 22 22 22 24 25 25 23 19 17 18 21 22 21 19 18 18 17 18 19 19 19 20 22 23 24 24 21 18 16 16 17 22 25 25 24 21 16 15 16 17 17 17 17 17 16 18 21 22 22 22 21 19 19 19 21 23 25 25 24 23 24 26 26 25 24 24 24 24 24 23 21 18 19 19 19 20 22
23 26 26 24 23 21 17 15 16 18 16 14 12 12 12 11 11 12 13 14 16 16 16 15 14 14 16 17 18 20 21 20 22 22 18 15 14 12 12 16 21 25 27 25 19 16 16 16 14 13 13 12 12 14 18 20 21 21 20 18 17 18 21 23 25 25 24 25 26 27 27 26 24 23 24 24 24 23 21 20 20 19 17 18 20
17 20 17 10 6 7 10 11 10 9 9 7 6 7 9 6 9 12 12 13 15 14 11 10 10 11 14 17 19 19 17 14 15 16 14 12 11 10 10 13 16 20 25 27 26 24 20 17 15 14 13 12 11 12 16 18 19 20 19 19 19 21 24 25 26 26 26 27 27 27 27 26 24 22 23 23 23 22 21 20 20 18 16 16 18
12 8 2 8 9 3 4 10 13 10 8 6 5 7 11 10 9 10 12 13 15 17 13 8 9 13 17 19 19 15 10 8 9 11 13 12 11 10 10 12 14 18 22 25 28 30 27 23 20 19 18 16 14 14 15 17 19 20 21 22 24 27 29 29 28 27 28 27 27 27 27 25 22 21 22 23 23 22 20 19 19 18 16 15 17
6 2 2 2 2 4 5 7 11 11 7 6 5 5 8 8 6 6 9 10 12 14 11 7 7 9 10 9 7 4 3 7 5 6 11 12 11 10 9 10 13 17 20 22 26 29 29 27 26 23 22 21 20 19 19 20 22 23 24 26 29 30 31 29 28 28 29 27 27 27 26 24 23 21 22 22 22 21 20 19 18 18 15 13 15
1 4 2 1 3 4 3 1 6 7 3 3 4 6 5 2 5 4 1 2 2 3 1 2 5 6 8 8 8 8 9 10 7 2 9 10 8 7 7 7 7 10 12 13 17 20 21 21 22 22 21 21 21 21 21 21 22 24 26 28 29 28 28 27 27 28 28 27 27 27 26 24 23 21 21 22 22 21 21 19 18 17 14 12 14
6 7 10 10 11 11 7 3 3 4 4 7 7 8 11 9 6 4 8 11 11 8 6 6 6 7 8 8 9 10 10 9 8 6 9 9 7 6 6 6 6 7 7 5 7 11 12 12 14 16 16 17 18 19 19 20 21 23 25 26 26 26 25 25 25 25 25 25 26 27 25 23 22 21 20 20 20 19 19 18 18 16 13 12 14
9 11 16 18 16 16 15 13 13 13 15 15 12 8 9 12 11 11 10 10 11 11 10 9 8 7 6 5 6 5 4 3 3 4 6 6 6 6 6 6 6 8 8 5 6 9 10 10 12 13 13 14 17 18 18 19 20 22 22 21 22 22 23 24 24 24 24 24 24 24 23 21 21 20 19 19 18 17 16 16 16 15 13 13 14
20 18 19 19 18 18 18 18 18 18 16 16 15 11 10 11 12 11 10 9 9 10 11 11 11 10 9 8 7 6 5 5 5 5 5 7 8 9 10 10 9 10 9 9 9 11 11 11 12 12 13 14 16 16 17 18 19 20 20 19 19 20 21 22 23 24 24 23 21 21 21 21 21 19 18 17 17 16 15 15 15 14 13 12 14
26 24 22 21 21 20 19 19 18 17 16 15 13 12 12 11 10 9 9 9 9 9 10 10 9 10 10 9 8 8 8 9 9 10 9 9 9 9 9 10 10 10 11 11 11 12 13 14 14 15 15 16 16 15 15 15 16 17 17 16 16 17 19 20 20 21 23 22 21 20 20 20 19 18 17 17 17 16 16 16 15 14 12 11 14
24 23 22 21 20 19 18 18 17 16 15 15 14 12 11 9 8 7 9 10 9 8 8 7 7 7 9 10 10 10 9 8 8 8 8 9 8 8 8 8 9 10 11 12 13 13 14 14 15 16 16 16 16 16 16 16 16 16 14 13 14 16 18 18 18 18 20 20 20 20 20 19 17 16 16 16 16 16 16 16 15 14 12 12 14
23 23 23 22 21 19 17 17 15 13 12 14 14 13 11 9 8 8 9 10 9 8 7 6 4 4 8 12 13 12 12 11 9 7 6 6 6 6 7 7 8 9 10 11 12 14 14 14 14 15 15 15 15 15 15 15 15 14 14 15 17 19 19 19 18 18 18 19 20 20 18 17 17 17 16 16 16 16 16 16 15 15 13 13 12
21 21 21 20 18 17 17 15 13 12 12 12 11 10 9 8 7 6 6 7 7 7 5 4 3 2 6 11 12 12 14 14 12 9 7 5 4 5 6 7 8 8 8 10 11 13 13 13 14 13 13 13 14 14 14 14 14 14 15 16 17 17 17 18 18 17 16 17 19 19 17 16 16 16 16 17 17 17 16 15 15 14 14 12 10
22 22 20 17 13 12 13 13 12 11 11 10 10 10 9 8 7 6 6 8 10 11 10 8 5 3 6 10 13 14 15 16 14 13 11 8 6 5 5 5 7 8 8 9 10 11 12 13 13 12 12 12 13 14 14 13 13 14 14 14 14 15 16 17 17 16 15 15 14 13 12 14 15 15 16 17 17 16 15 15 14 14 13 12 11
23 23 23 22 18 15 15 16 17 17 16 15 15 16 16 15 14 13 12 11 11 12 11 10 8 6 9 12 15 17 16 14 13 14 13 10 8 7 6 6 8 9 10 9 8 8 9 9 9 9 9 9 10 10 10 11 12 12 13 14 14 15 15 15 16 16 17 17 15 13 12 13 14 14 15 17 17 16 15 15 15 14 13 12 12
19 19 19 19 19 18 19 19 19 20 19 18 17 16 15 15 14 14 13 12 11 10 9 9 8 7 8 9 15 18 18 14 12 12 11 6 5 7 7 8 9 9 9 8 6 6 8 8 8 8 9 11 11 12 12 13 14 14 14 15 15 15 15 15 15 16 15 14 13 13 13 13 14 14 14 16 16 15 15 15 16 15 14 12 11
11 12 14 14 13 13 13 14 15 15 16 15 15 14 13 12 12 12 11 11 11 11 10 10 8 4 2 5 12 17 17 14 12 12 10 6 4 6 7 7 8 9 9 10 11 12 12 13 13 14 14 15 15 15 15 15 16 16 16 16 16 16 16 15 15 15 15 13 13 13 12 12 12 13 14 14 15 15 15 16 17 17 15 14 12
10 11 12 13 13 12 12 11 11 11 12 12 11 12 12 11 9 9 8 9 9 9 10 11 10 6 2 3 9 13 14 12 12 11 10 8 8 8 9 9 9 8 9 11 12 11 10 12 13 13 13 13 13 14 14 14 14 15 15 15 16 17 17 16 16 17 16 15 14 15 14 12 12 12 13 13 14 15 15 16 17 17 16 15 13
11 10 8 8 9 10 10 10 9 9 10 11 10 10 10 10 9 7 6 7 8 8 9 11 11 8 5 5 7 9 11 10 10 8 7 7 7 7 8 8 6 8 10 10 9 7 8 9 10 10 11 12 12 13 13 14 15 15 15 14 14 14 15 16 16 17 17 16 15 15 14 13 13 13 13 13 14 15 15 15 16 17 16 15 14
13 11 8 7 7 7 8 9 10 9 9 12 14 12 9 9 11 9 8 9 11 11 10 11 11 11 10 10 10 9 9 10 9 7 7 7 6 5 8 8 6 7 6 6 6 5 6 7 7 6 5 7 8 8 8 10 11 13 14 14 13 11 11 12 14 15 16 15 15 14 14 13 13 13 13 12 13 15 16 15 16 17 17 16 14
16 12 10 9 9 9 10 10 11 10 8 11 16 15 9 8 10 13 13 13 14 13 12 13 14 14 13 13 12 11 10 10 9 7 7 8 7 5 5 6 5 3 3 5 4 3 1 3 7 8 5 5 7 8 7 7 8 9 11 11 11 11 12 13 16 17 17 16 15 15 15 15 14 12 12 12 13 15 16 16 16 17 17 16 15
17 14 11 9 8 9 9 10 11 12 10 11 15 15 10 7 10 13 12 12 12 13 14 16 16 15 14 12 11 10 10 10 10 9 9 11 12 9 6 6 8 9 11 11 11 10 6 3 6 8 7 7 9 10 10 9 9 10 9 6 7 10 11 13 16 18 18 17 16 15 16 16 13 11 11 12 14 15 16 16 16 17 17 17 16
14 15 14 11 9 9 9 10 12 13 11 10 13 14 11 10 12 13 11 11 12 14 15 15 14 14 14 14 13 12 12 12 12 12 11 12 13 12 10 12 14 16 16 15 14 12 9 4 4 6 8 8 9 11 11 10 10 11 9 3 2 4 8 12 16 18 17 15 15 16 17 16 15 13 13 14 14 15 15 15 16 17 18 18 17
12 14 14 12 11 10 9 10 12 13 13 13 14 13 11 11 12 13 12 12 13 14 15 14 14 14 14 13 13 14 14 14 14 15 15 14 14 13 13 15 18 19 18 15 11 8 7 6 5 7 9 10 11 12 12 11 11 11 7 3 0 4 9 13 15 16 16 15 15 15 15 15 16 15 14 14 14 14 14 14 14 16 17 17 17
12 13 13 13 13 12 10 10 10 9 10 14 15 13 12 13 13 14 14 15 15 14 14 14 15 14 14 14 14 15 15 15 15 15 15 16 15 14 14 16 19 21 20 15 12 11 11 11 10 10 10 11 12 13 13 13 13 10 5 4 1 6 10 12 13 14 15 16 16 15 13 13 14 14 13 12 12 12 12 12 13 15 15 16 17
13 13 13 14 14 15 15 14 11 8 8 12 14 13 13 13 13 14 15 15 15 14 13 14 16 17 17 17 16 15 15 16 16 16 16 17 17 17 16 17 19 22 21 18 16 15 15 14 13 12 10 10 12 14 16 18 16 10 7 6 6 8 9 11 11 12 14 16 16 15 13 11 11 12 11 11 10 10 10 10 12 14 14 14 16
14 14 14 13 13 14 16 17 15 13 12 12 13 13 14 14 15 15 15 13 13 14 15 17 18 18 17 17 17 18 19 19 19 19 18 18 18 18 18 18 20 23 24 22 20 18 16 15 15 14 13 13 14 15 18 21 17 11 8 8 10 11 11 12 12 12 13 14 14 14 13 10 9 10 10 10 9 9 9 10 11 13 13 14 16
14 14 15 15 14 14 14 14 14 14 14 14 14 13 14 15 15 14 14 14 16 17 18 18 19 19 19 20 21 21 21 21 20 19 18 19 21 22 23 24 23 23 22 22 22 21 19 19 20 20 19 17 16 17 19 21 20 16 14 15 16 15 13 12 11 11 12 12 13 14 13 9 7 9 9 9 9 10 11 11 11 12 12 13 15
Wind_Direction
194 195 198 203 199 197 204 207 209 212 208 204 206 211 213 216 217 211 205 205 204 208 209 206 205 202 199 201 202 201 203 202 201 205 205 207 211 213 219 221 223 226 225 225 228 224 225 227 222 221 223 227 231 228 233 241 234 237 243 234 235 236 232 237 251 276 289 295 300 302 305 308 310 313 314 315 318 322 322 322 324 324 323 323 323
194 196 198 200 196 197 202 203 206 211 212 209 206 209 215 221 221 207 198 204 207 208 210 210 210 207 204 204 205 205 207 206 206 205 206 210 211 212 216 219 221 225 224 224 227 227 227 230 230 226 223 225 229 233 240 241 231 237 244 236 236 238 237 251 265 277 290 296 302 304 306 308 309 311 313 317 322 322 321 323 326 325 325 324 324
196 196 198 199 198 199 201 200 204 210 214 213 209 208 215 223 222 209 200 205 209 210 213 214 212 210 208 208 208 208 208 209 210 209 208 212 213 214 215 217 221 224 224 224 226 227 225 226 231 231 227 226 229 237 245 245 237 242 251 251 248 248 249 256 265 273 285 293 300 304 306 307 306 307 312 318 321 320 319 321 324 326 327 326 324
196 194 197 201 200 199 201 200 201 207 213 216 212 209 214 220 219 214 210 210 211 213 214 216 215 214 212 211 210 210 209 211 213 213 212 212 214 218 218 220 223 225 226 226 228 229 225 223 226 228 229 230 233 239 245 249 247 244 250 257 257 258 260 255 257 272 283 290 295 298 301 303 303 306 312 317 319 318 317 317 320 325 327 327 327
197 193 196 199 200 200 202 201 201 204 210 213 212 211 214 218 218 217 216 213 214 216 216 217 218 215 215 214 212 211 210 212 214 216 216 215 216 219 221 223 224 225 227 228 230 231 229 226 225 224 227 230 232 235 238 242 244 241 244 253 257 261 263 257 262 275 279 283 289 294 297 298 300 307 314 317 319 318 316 316 318 322 325 326 329
197 195 194 196 200 201 203 203 203 205 208 210 211 212 214 217 218 219 218 216 217 217 216 218 220 219 217 217 216 214 213 212 215 218 218 218 218 220 222 225 225 225 227 229 230 232 233 231 229 226 227 230 231 233 235 237 240 242 244 249 255 260 263 265 269 277 278 279 285 291 295 296 301 311 316 318 319 317 318 319 319 321 324 326 328
195 196 194 194 198 201 203 205 204 205 207 208 209 211 214 217 218 219 218 217 220 221 219 219 222 223 221 220 219 218 216 215 215 218 220 220 220 221 222 225 227 227 227 229 231 232 233 234 233 231 230 231 232 233 234 236 239 242 245 249 253 256 261 265 268 273 279 281 284 289 292 297 304 310 314 317 318 317 321 324 321 322 325 325 325
195 196 194 195 198 200 203 204 205 206 207 207 210 212 214 216 216 218 219 218 220 223 223 222 222 225 226 225 223 219 218 218 217 219 220 221 222 223 224 225 226 227 228 229 231 232 233 234 234 235 234 233 234 234 234 236 237 239 245 247 250 253 256 260 263 270 276 278 283 288 292 298 303 308 314 320 320 319 323 324 320 321 324 322 321
195 196 196 197 199 200 203 204 205 206 206 207 210 213 216 217 217 219 221 222 224 226 227 226 223 224 227 229 228 222 219 220 221 221 220 220 223 225 226 227 226 227 229 230 232 232 233 235 234 236 237 236 236 234 233 234 233 234 239 239 243 250 257 262 264 268 274 279 284 289 293 296 300 308 315 319 319 318 321 323 320 320 321 319 317
195 197 198 199 200 200 202 204 205 206 206 207 210 213 216 218 218 220 220 222 225 227 231 230 226 225 226 228 230 226 223 222 222 225 225 223 223 224 226 228 227 227 228 229 231 233 233 235 236 237 239 238 238 236 234 236 235 235 237 238 242 248 255 263 265 268 277 282 282 288 291 290 293 303 308 311 314 316 320 323 320 319 322 320 316
196 199 200 200 201 201 202 203 205 206 206 207 210 212 216 218 220 221 221 222 224 226 230 232 230 229 229 228 229 227 226 226 224 227 230 229 226 224 225 227 227 227 228 228 230 232 233 236 237 238 240 241 240 240 241 244 247 248 249 251 254 257 258 260 260 263 272 277 279 281 281 282 287 294 299 305 311 314 317 319 318 320 325 322 314
195 200 201 200 201 201 203 204 205 207 207 208 211 213 215 218 219 221 222 223 224 225 228 231 231 231 231 231 231 228 227 229 228 229 233 234 232 228 225 226 227 228 228 228 229 231 232 235 237 238 241 243 243 244 246 250 254 256 258 259 260 260 258 256 256 257 259 265 273 274 272 276 284 288 292 301 306 308 312 314 316 319 319 314 307
195 200 201 202 202 202 204 205 205 208 208 208 211 213 216 219 220 221 223 224 225 227 228 230 231 231 230 231 232 231 229 230 231 233 237 239 237 233 228 228 229 229 229 229 229 230 231 233 235 237 239 243 246 246 246 250 254 257 259 261 260 258 256 254 255 256 255 256 262 266 269 272 276 280 286 293 298 304 310 310 312 313 308 305 302
195 200 203 204 204 202 203 206 208 210 210 210 212 213 214 219 221 222 223 223 225 227 228 229 230 231 231 230 231 232 231 231 232 236 241 242 241 237 233 230 231 232 232 231 229 229 230 232 234 236 237 240 244 245 244 246 252 256 258 257 256 256 255 255 255 254 253 253 255 261 268 269 271 278 286 288 289 294 301 304 305 304 300 300 300
195 199 205 207 207 204 204 207 209 210 210 210 212 214 215 218 220 220 222 223 225 227 228 229 230 232 232 231 232 234 235 235 236 239 243 245 243 240 236 232 232 234 235 234 232 231 231 232 233 236 237 238 241 243 243 242 245 251 256 258 258 258 258 260 260 254 249 249 253 263 272 273 274 281 287 285 282 283 288 295 298 298 297 299 301
198 200 204 207 211 210 207 209 210 212 213 211 212 215 216 218 219 219 220 223 225 229 229 228 229 231 233 232 232 235 237 237 239 241 244 246 243 239 236 233 232 234 236 235 233 232 233 233 235 236 238 239 240 242 244 243 241 243 249 256 259 259 260 264 269 265 259 256 260 268 275 277 276 279 281 281 281 284 288 292 294 295 296 298 300
202 205 206 207 212 214 212 213 212 212 213 213 214 215 215 218 220 219 219 221 223 226 228 228 228 229 231 232 233 236 238 238 240 243 245 246 242 238 237 235 232 234 236 235 234 234 235 236 237 238 238 240 242 242 243 243 241 241 245 251 256 258 259 262 267 271 271 269 267 268 270 270 268 270 277 283 287 289 289 288 290 293 294 293 294
205 210 213 211 213 216 217 218 217 215 215 216 217 217 216 217 218 218 219 221 223 226 227 228 229 229 230 233 234 236 237 238 242 245 246 247 244 240 237 235 233 234 236 236 235 235 237 238 238 237 238 241 243 243 242 241 242 243 245 250 255 258 259 260 262 266 270 266 261 259 259 258 259 265 277 289 293 291 285 283 286 288 284 282 288
204 210 217 217 217 220 221 221 220 219 218 218 220 219 217 217 217 218 219 222 226 229 228 228 229 229 231 234 235 235 235 237 244 246 245 246 248 243 236 232 233 234 234 235 235 235 237 240 240 239 240 243 243 242 241 241 242 244 245 248 253 257 259 261 262 265 266 256 247 248 251 254 260 268 281 292 295 290 284 284 284 279 272 277 289
210 213 216 221 223 222 223 225 225 223 221 221 222 222 221 219 217 216 218 222 225 226 227 229 231 230 233 236 236 235 235 237 243 246 245 246 249 244 234 229 230 232 232 230 231 232 236 240 241 241 243 246 246 244 242 243 244 245 245 244 249 255 260 262 261 264 268 259 249 249 254 259 267 275 284 289 289 287 285 283 279 270 264 272 285
210 212 215 224 230 227 224 226 229 228 225 223 223 222 222 223 222 219 219 221 223 224 225 227 228 229 234 239 241 239 238 237 240 246 250 251 251 243 233 228 229 230 230 228 227 231 235 238 239 240 241 246 249 247 245 245 247 247 246 245 247 253 259 261 260 264 271 269 262 260 262 267 275 281 282 280 279 284 285 278 272 269 265 269 278
202 205 214 224 231 231 227 229 233 232 227 225 226 225 221 221 223 223 221 220 221 223 222 220 222 225 229 236 240 240 238 239 243 251 254 255 253 247 238 232 229 228 229 228 226 228 233 237 238 241 244 247 248 246 245 245 245 247 249 249 249 251 256 262 264 267 269 269 267 267 268 271 275 277 274 269 270 277 280 272 268 270 270 272 276
202 199 208 217 223 226 227 229 229 228 226 224 225 227 226 223 222 221 222 222 222 222 221 218 221 225 229 237 243 240 239 243 249 251 251 251 252 251 246 241 234 227 229 232 230 230 235 240 241 244 248 250 248 245 242 241 243 247 251 253 252 254 259 263 265 266 266 266 266 266 266 267 269 272 269 264 265 273 277 273 269 270 273 278 282
212 207 209 214 220 229 240 242 231 226 227 226 224 225 226 223 222 222 222 222 218 216 217 218 220 226 233 239 242 241 243 245 245 244 245 248 252 254 253 248 238 230 230 233 234 237 242 243 242 244 248 251 250 245 241 240 244 249 253 255 255 257 259 262 264 265 263 262 262 263 264 266 267 270 270 265 265 272 277 275 272 275 281 289 292
214 216 220 221 221 223 235 247 237 226 226 228 232 240 235 218 213 226 243 248 238 226 219 218 223 232 238 238 239 243 245 240 234 235 239 244 251 260 264 255 243 236 234 232 231 238 245 247 247 247 251 254 252 245 241 242 246 250 253 255 255 255 256 259 263 262 259 258 260 261 265 266 267 272 275 270 264 267 273 275 276 282 290 295 296
225 227 227 223 209 204 223 253 260 239 232 242 262 299 314 287 232 237 264 284 280 267 249 229 229 243 251 248 243 244 241 226 217 223 227 232 246 265 271 257 244 240 240 237 234 235 241 250 257 260 263 264 259 251 246 247 248 250 251 252 253 255 258 260 261 258 257 258 261 262 266 269 270 274 276 269 260 260 266 271 275 280 288 293 293
246 255 8 57 57 66 247 279 289 283 287 301 283 271 279 277 263 258 262 264 264 265 264 255 250 260 263 255 245 240 230 197 191 209 218 224 236 252 260 252 241 238 240 239 237 236 238 246 257 264 268 269 268 264 259 257 256 256 255 256 258 260 261 261 260 260 260 261 263 266 269 272 273 274 271 264 257 257 263 268 269 274 283 290 289
239 191 77 103 181 203 205 241 264 270 297 348 352 306 275 266 267 271 259 245 242 248 260 285 296 288 281 269 252 228 141 112 123 201 217 224 235 244 253 253 244 240 240 240 241 242 243 248 256 263 268 270 272 272 270 267 266 265 263 263 264 265 264 262 259 259 260 261 263 267 269 269 269 269 267 261 256 257 263 266 265 269 278 285 285
17 116 120 119 82 66 65 316 283 286 312 27 45 47 56 135 189 195 169 81 118 189 221 355 9 22 36 48 62 81 91 81 66 162 202 207 218 230 244 253 254 255 256 254 251 251 252 253 257 260 263 265 266 267 267 266 266 264 265 265 264 262 262 260 258 258 259 259 260 263 265 266 267 265 262 259 256 260 264 263 260 263 270 275 280
29 57 52 57 77 84 78 45 339 352 57 98 107 86 78 92 114 93 54 41 35 35 32 23 27 35 38 48 64 81 91 85 82 123 161 174 179 189 213 233 247 259 268 271 253 248 248 253 257 257 256 255 255 255 255 254 255 258 263 266 263 259 256 256 258 261 262 260 260 261 263 264 264 262 257 254 256 262 265 260 254 254 258 267 277
27 47 50 53 68 81 82 76 69 64 68 78 83 74 67 69 64 52 43 32 22 18 15 13 18 21 16 20 36 52 70 86 110 143 168 190 205 215 227 234 239 247 252 248 232 228 230 242 253 252 246 244 244 245 247 248 251 256 261 264 264 259 254 254 258 261 261 261 261 262 262 261 260 258 253 251 255 262 264 256 248 247 250 261 273
36 35 37 39 49 61 67 67 68 68 69 69 67 63 64 66 59 53 49 44 36 29 23 20 20 17 10 6 2 350 336 323 306 287 269 259 258 260 260 258 257 258 256 249 236 225 223 234 245 249 250 251 251 251 251 250 253 259 260 260 261 260 258 262 267 267 263 260 259 261 261 259 257 254 251 251 255 258 257 249 241 242 249 258 271
43 39 35 33 35 42 48 53 60 67 73 74 71 67 64 61 58 53 46 41 36 22 12 14 20 17 12 8 0 346 332 321 313 307 301 293 285 279 274 269 264 260 255 246 237 232 232 239 248 255 259 263 267 268 266 265 270 274 271 265 263 265 270 277 279 273 267 261 257 258 259 257 254 250 247 251 254 252 251 246 239 241 250 256 269
44 42 41 39 37 36 39 45 51 57 65 70 70 66 60 55 53 46 39 38 37 25 15 20 27 27 29 29 25 18 11 357 342 325 313 307 301 290 280 273 264 256 251 245 239 239 242 246 253 260 263 266 270 274 277 279 281 283 281 277 275 277 278 278 272 267 265 262 257 255 255 253 252 249 245 248 250 247 247 245 239 238 244 251 264
41 42 44 44 44 43 41 43 47 51 58 66 69 69 68 66 65 61 53 45 34 22 22 32 34 45 49 42 33 28 24 15 5 353 336 318 301 287 277 270 263 257 253 248 245 245 246 247 252 257 261 265 268 270 271 272 272 273 274 273 273 275 276 273 267 261 259 256 253 251 250 248 248 248 246 247 247 244 242 241 236 233 238 248 262
33 34 37 41 46 48 47 48 50 55 61 65 66 66 67 69 69 67 65 54 26 2 13 50 76 92 56 38 29 23 13 2 353 347 338 321 300 289 278 273 272 265 254 251 251 252 252 253 255 258 259 261 262 263 264 267 271 276 277 275 274 275 276 278 276 268 261 255 247 241 242 247 248 248 248 249 249 245 242 239 235 232 234 242 257
26 24 25 26 27 28 31 31 27 26 32 36 35 31 26 29 31 25 36 46 27 9 15 33 39 60 55 32 20 10 358 348 340 331 320 306 295 288 278 275 275 267 259 258 256 252 252 252 254 255 258 260 261 261 266 274 281 284 286 287 288 286 285 286 287 286 286 281 264 246 246 254 252 249 250 250 248 245 242 240 238 235 236 241 250
26 25 27 28 25 23 27 27 23 22 25 29 31 28 23 22 24 23 29 37 27 15 16 15 11 39 55 32 10 359 350 343 337 327 316 303 294 296 294 276 262 260 270 277 268 256 260 264 262 262 267 272 275 281 294 303 304 302 302 303 300 298 300 302 302 302 301 292 276 264 266 268 261 256 256 253 247 243 242 243 241 238 239 242 244
33 32 31 30 28 28 30 30 27 27 29 28 28 26 23 23 24 22 23 25 19 13 13 4 3 38 57 28 5 359 352 344 334 326 320 310 292 288 281 269 268 281 304 320 329 335 340 345 350 351 349 344 341 342 343 340 334 329 324 320 318 317 318 317 315 316 316 302 282 270 270 271 270 269 264 257 250 246 247 249 245 238 236 236 236
43 40 34 28 25 28 32 31 30 30 25 20 18 17 13 14 17 17 16 16 12 7 2 352 349 6 30 2 359 356 349 341 334 330 336 347 331 308 303 307 318 331 347 2 6 5 3 7 11 8 1 355 352 352 349 344 341 338 334 331 331 331 330 328 327 330 332 329 320 308 292 279 277 277 270 261 257 255 256 255 249 240 236 233 231
30 28 22 17 16 19 22 24 27 27 19 14 14 11 1 356 359 7 8 3 358 356 351 342 337 328 300 330 353 354 348 339 328 326 338 353 348 340 339 338 340 357 16 15 4 357 4 12 10 3 359 357 355 353 347 342 340 337 334 335 341 344 345 345 344 340 335 330 326 320 309 294 288 284 275 266 265 263 260 258 251 241 235 233 233
8 7 10 10 10 12 12 8 8 11 11 8 4 359 349 339 335 341 349 347 346 347 342 336 333 330 315 308 330 344 341 323 305 307 333 344 342 341 336 331 354 34 30 8 349 350 14 19 5 357 1 2 356 354 353 349 344 339 337 338 342 341 337 336 338 340 337 330 324 321 312 299 289 282 274 269 270 267 260 256 250 241 235 234 234
337 338 349 357 1 6 4 356 353 358 3 356 346 336 324 319 324 335 349 352 348 343 335 332 337 340 331 315 307 307 305 298 297 312 331 326 322 335 335 336 12 42 21 342 332 358 28 16 345 330 346 351 336 333 344 347 344 341 338 335 331 327 327 338 353 1 359 347 336 328 321 311 298 283 271 269 271 269 263 256 250 242 236 234 233
341 343 349 350 354 357 355 349 348 352 1 357 344 329 305 300 328 348 356 350 342 341 341 339 337 331 321 312 301 288 280 286 299 317 327 322 315 311 311 320 336 332 286 282 293 298 338 338 308 290 289 323 324 318 324 335 337 333 330 336 350 4 10 9 5 1 355 347 338 331 326 320 307 287 274 274 274 270 263 256 250 245 238 232 229
344 341 337 335 339 343 344 347 346 346 354 356 340 325 315 326 341 343 340 333 333 339 337 326 317 312 312 313 311 301 295 302 309 309 309 305 296 285 283 299 297 279 264 260 258 253 248 283 306 300 311 337 338 331 331 333 332 329 330 353 30 30 17 5 356 349 345 341 334 327 324 321 311 296 291 291 280 264 256 254 254 250 243 234 230
338 329 324 327 329 332 342 351 344 337 340 341 326 318 326 344 338 325 321 326 331 330 320 312 312 320 324 323 323 322 321 319 313 307 301 297 295 300 312 310 296 284 276 270 261 253 250 263 303 313 318 322 322 321 321 318 318 322 324 332 41 14 357 356 355 352 349 343 330 318 313 310 305 302 302 296 279 259 252 257 259 254 247 240 235
327 321 320 325 325 324 338 346 337 332 335 331 320 317 329 334 325 320 324 328 325 321 317 316 319 320 317 317 322 325 324 322 318 316 314 307 303 302 299 293 290 290 288 283 277 273 276 289 314 320 313 308 307 307 303 299 303 307 298 251 200 5 360 358 356 353 352 347 337 327 316 306 302 304 304 294 274 254 250 260 262 256 250 245 240
319 317 317 318 313 308 308 304 300 310 323 321 317 323 331 329 326 328 329 324 319 318 319 319 319 318 318 321 322 318 315 313 311 310 308 305 303 301 296 297 306 313 311 306 309 316 317 319 322 316 304 299 302 305 303 302 301 294 258 210 263 346 348 349 352 353 351 348 346 342 331 311 301 303 306 299 278 256 252 263 266 257 249 243 238
314 310 306 302 301 304 308 307 308 320 329 320 317 322 326 325 326 324 318 312 314 317 320 323 325 324 321 317 313 311 313 314 311 310 311 310 310 310 307 306 313 321 322 319 318 317 316 315 312 305 300 302 308 311 311 307 300 278 239 242 286 314 328 337 342 344 343 345 348 348 339 318 299 297 302 302 289 269 262 270 268 255 247 243 241
309 311 313 313 314 318 323 328 335 341 336 323 318 319 321 320 316 311 307 313 323 328 327 325 321 317 314 314 317 320 320 316 311 309 308 307 307 310 313 315 317 320 321 321 319 315 312 310 306 301 299 302 305 306 305 304 299 281 258 276 297 303 309 320 327 328 332 340 347 349 344 328 302 291 293 293 286 278 277 276 265 252 248 248 244
310 317 323 327 327 327 327 329 331 329 323 318 316 316 315 312 308 309 317 328 331 326 322 319 317 315 314 314 311 308 304 301 300 303 308 312 314 316 318 318 315 312 311 312 311 308 305 302 299 294 291 292 296 297 295 296 296 291 288 294 297 291 290 303 314 315 319 330 339 345 348 340 306 285 282 279 276 278 281 276 262 253 251 250 242